Location: Le Puy-Notre-Dame
(47.1255°N, 0.2357°W)
Time: 17:56:48
(UTC+00:00)

Daily predictions for brighter satellites

Satellite Brightness Start Highest point End
(mag) Time Altitude Azimuth Time Altitude Azimuth Time Altitude Azimuth
Nadezhda 1 Rocket 4.2 20:26:20 10° N 20:32:45 68° E 20:39:05 10° SSE
Atlas Centaur 2 3.9 20:29:57 10° SSW 20:33:30 16° S 20:37:30 10° SE
MetOp-B 4.3 20:29:21 10° SSE 20:34:38 64° ENE 20:39:58 10° N
Terra 3.6 20:33:03 10° ESE 20:36:21 19° ENE 20:39:39 10° NNE
Cosmos 2219 Rocket 3.4 20:33:05 10° SSE 20:37:07 21° E 20:41:11 10° NE
Meteor 2-1 Rocket 4.5 20:32:30 10° NNW 20:38:21 84° W 20:44:15 10° S
Cosmos 2360 Rocket 2.3 20:33:10 10° S 20:38:39 58° ESE 20:44:13 10° NE
IGS 5A 3.9 20:36:19 10° SE 20:40:17 46° ENE 20:44:17 10° N
Cosmos 2333 Rocket 3.2 20:42:07 10° SSE 20:46:47 27° ESE 20:51:30 10° NE
ATLAS 2AS CENTAUR R/B 4.4 20:42:43 10° NW 20:49:26 30° NNE 20:55:44 10° E
Resurs 01 Rocket 2.2 20:47:45 10° S 20:52:05 57° W 20:56:27 10° NNW
Cosmos 1818 3.5 20:48:21 10° SSW 20:53:44 69° ESE 20:59:10 10° NE
CZ-2C R/B 3.9 20:49:11 10° N 20:54:21 46° WNW 20:59:24 10° SW
Cosmos-2242 3.2 20:50:22 10° N 20:54:40 57° ENE 20:58:57 10° SSE
SL-16 R/B 3.3 20:52:05 10° SW 20:57:36 51° WNW 21:03:09 10° NNE
Cosmos 2221 4.5 20:56:25 10° NNE 20:59:17 17° ENE 21:02:08 10° ESE
ERS-1 Rocket 3.5 20:56:51 10° SE 21:01:37 47° ENE 21:06:28 10° N
GEOS 3 Rocket 3.7 20:59:14 10° NE 21:04:34 60° SE 21:09:53 10° SSW
Cosmos 2278 Rocket 3.6 21:03:01 10° N 21:07:52 28° NE 21:12:42 10° ESE
USA 215 3.5 21:01:55 10° ENE 21:08:09 44° SE 21:14:19 10° SSW
ATLAS 5 CENTAUR R/B 1.4 21:06:16 10° SW 21:10:24 80° SE 21:15:03 10° NE
USA 245 3.2 21:08:36 10° S 21:11:48 75° WSW 21:15:58 10° NNW
Cosmos 1844 Rocket 2.8 21:07:29 10° NNW 21:13:04 76° WSW 21:18:16 12° SSE
Cosmos 1400 Rocket 2.8 21:10:00 10° NNW 21:14:01 88° W 21:17:41 12° S
Cosmos 1758 Rocket 3.7 21:10:12 10° SSW 21:14:42 81° W 21:19:14 10° N
Meteor 2-10 Rocket 4.4 21:12:09 10° NNW 21:17:03 48° W 21:22:04 10° SSW
SPOT 5 3.2 21:13:56 13° SSE 21:18:18 57° ENE 21:23:01 10° N
Lacrosse 5 rocket 3.9 21:15:25 10° WNW 21:18:50 23° NNW 21:22:05 10° NE
BREEZE-M DEB (TANK) 4.5 21:15:50 10° WNW 21:19:53 75° N 21:35:37 10° E
Spot 2 Rocket 3.8 21:17:06 10° S 21:22:09 65° WSW 21:27:15 10° NNW
USA 81 4.3 21:19:52 12° SSE 21:24:41 55° E 21:29:51 10° NNE
Landsat 7 4.2 21:21:58 10° S 21:26:40 62° W 21:31:24 10° NNW
BREEZE M DEB (TANK) 1.8 21:24:04 10° WNW 21:26:41 53° SSW 21:27:39 25° SE
Cosmos 2181 Rocket 4.1 21:22:33 10° N 21:28:55 71° E 21:34:14 15° SSE
SPOT 1/Viking Rocket 3.9 21:31:53 11° S 21:36:46 63° WSW 21:41:55 10° NNW
Cosmos 1953 Rocket 3.5 21:33:30 10° S 21:37:49 84° W 21:42:11 10° N
USA 267 3.6 21:34:39 10° ESE 21:41:07 64° NNE 21:47:36 10° NW
SAR-Lupe-2 4.0 21:40:27 10° N 21:44:01 63° WNW 21:47:33 10° SSW
Cosmos 2084 3.6 21:40:40 10° NW 21:45:08 75° NE 21:48:05 21° SE
Cosmos 2322 Rocket 4.3 21:40:17 10° WSW 21:45:09 29° NW 21:50:03 10° N
Cosmos 1842 Rocket 3.8 21:42:11 10° N 21:46:28 53° ENE 21:49:02 22° SSE
Cosmos 1455 4.4 21:44:16 10° NW 21:47:13 21° W 21:50:12 10° SW
MTI 4.4 21:49:31 10° NNE 21:52:23 35° E 21:53:10 29° SE
ATLAS CENTAUR R/B 1.0 21:52:57 10° NW 21:56:40 85° SW 21:58:26 29° SSE
Cosmos 1825 4.2 21:58:09 13° E 21:58:51 14° E 22:00:49 10° NE
Cosmos 1980 4.4 21:56:55 21° SSE 21:59:55 36° ESE 22:05:01 10° NE
COSMOS 2428 2.7 21:59:00 10° SSW 22:04:41 87° ESE 22:10:24 10° NNE
Cosmos 1869 3.3 22:03:28 10° N 22:07:27 72° E 22:09:22 29° SSE
Cosmos 2322 4.4 22:03:01 10° SW 22:08:39 57° WNW 22:14:18 10° NNE
NOSS 0 Rocket 4.1 22:07:31 17° S 22:12:08 55° ESE 22:18:08 10° NE
NOSS 3-4 (A) 4.2 22:06:48 10° NW 22:13:37 61° NE 22:19:46 16° ESE
Terra 2.1 22:10:34 21° S 22:13:38 62° WSW 22:18:22 10° NNW
NOSS 3-4 (C) 4.2 22:06:55 10° NW 22:13:44 60° NE 22:19:55 16° ESE
Cosmos 2237 Rocket 2.5 22:14:58 24° S 22:18:07 46° ESE 22:23:32 10° NE
Genesis I 4.2 22:18:36 28° ESE 22:18:37 28° ESE 22:22:00 10° ENE
BREEZE-M DEB 4.3 22:15:56 10° WNW 22:19:58 75° SSW 22:36:13 10° ESE
Cosmos 2219 Rocket 2.5 22:14:58 10° SW 22:20:31 66° WNW 22:26:08 10° NNE
Cosmos 2344 4.0 22:16:02 20° S 22:20:33 40° ESE 22:27:41 10° NE
Atlas Centaur 2 4.1 22:17:31 10° SW 22:21:21 17° S 22:21:21 17° S
Cosmos 1538 Rocket 4.4 22:16:28 10° SSW 22:21:47 64° WNW 22:27:06 10° NNE
Cosmos 2360 Rocket 4.3 22:18:12 10° WSW 22:23:01 28° NW 22:27:54 10° N
NOSS 3-3 (A) 4.1 22:17:16 10° SW 22:23:09 80° NW 22:29:52 10° NE
NOSS 3-3 (C) 4.0 22:17:22 10° SW 22:23:15 81° NW 22:29:59 10° NE
Cosmos 1315 Rocket 4.0 22:23:47 10° NNW 22:27:34 37° W 22:29:55 20° SSW
DELTA 2 R/B (1) 4.2 22:23:06 10° SW 22:27:58 31° SSE 22:30:03 24° SE
Cosmos 2333 Rocket 3.0 22:25:09 10° SW 22:30:43 54° WNW 22:36:21 10° NNE
Thor Agena Rocket 3.8 22:26:14 10° NNE 22:31:11 48° E 22:33:18 30° SSE
Cosmos 2184 Rocket 4.0 22:27:10 18° SSW 22:31:54 82° W 22:38:16 10° N
Meteor 2-2 Rocket 4.4 22:26:43 10° NNW 22:32:32 73° W 22:35:55 25° S
Cosmos 2221 3.0 22:32:56 10° NNW 22:37:13 54° W 22:39:20 27° SSW
BREEZE-M DEB (TANK) 2.0 22:35:38 10° WNW 22:40:09 65° N 22:41:22 28° E
Iridium 2 3.9 22:37:37 10° N 22:41:25 59° E 22:42:26 42° SE
Cosmos 1371 Rocket 4.2 22:36:23 10° NNW 22:41:37 63° ENE 22:44:15 29° SE
ATLAS 2AS CENTAUR R/B 2.9 22:34:01 10° NW 22:41:41 77° NE 22:46:25 23° SE
Cosmos 1892 2.7 22:41:59 36° SSW 22:43:27 75° W 22:47:16 10° N
EO 1 Del DPAF 3.5 22:40:34 10° NNE 22:44:15 51° E 22:44:59 43° SE
MOS 1-B Rocket 4.5 22:38:30 10° NNE 22:46:10 62° E 22:49:56 27° S
Okean 3 Rocket 4.5 22:47:03 30° ESE 22:48:11 35° E 22:52:12 10° NNE
Aureole 2 Rocket 3.5 22:46:13 10° N 22:48:39 25° ENE 22:48:59 25° ENE
Cosmos 2112 Rocket 4.0 22:48:24 29° S 22:51:07 72° ESE 22:56:29 10° NNE
Cosmos 1606 3.9 22:47:46 10° N 22:51:17 32° ENE 22:52:19 27° ESE
USA 215 3.6 22:44:51 10° NE 22:51:23 70° NNW 22:57:53 10° WSW
Cosmos 2278 Rocket 2.5 22:46:46 10° NNW 22:52:20 59° WSW 22:54:59 30° S
Cosmos 2297 4.4 22:48:11 10° NNW 22:53:46 48° ENE 22:57:11 22° ESE
Cosmos 158 Rocket 3.7 22:52:56 30° SSW 22:55:20 83° ESE 23:00:16 10° NNE
ATLAS 5 CENTAUR R/B 4.3 22:52:11 10° W 22:55:40 22° NNW 22:59:31 10° NNE
Lacrosse 5 rocket 3.7 22:55:48 10° NW 22:59:05 22° N 23:02:12 10° ENE
Cosmos 1943 Rocket 3.7 22:55:13 10° NNW 23:00:11 30° NE 23:04:40 12° ESE
Spot 4 3.8 22:59:07 37° S 23:01:01 84° WSW 23:05:49 10° NNW
SL-16 R/B 2.8 23:00:46 31° SE 23:02:29 39° ESE 23:07:43 10° NE
Cosmos 2058 3.6 23:01:10 26° SW 23:03:13 48° WNW 23:07:15 10° N
Cosmos 1408 2.6 23:03:24 46° SW 23:04:17 68° W 23:07:51 10° N
Cosmos 2056 Rocket 3.5 23:00:09 10° NNW 23:05:36 84° ENE 23:07:58 35° SSE
Nadezhda 3 Rocket 4.3 23:04:12 10° NNW 23:10:29 61° W 23:13:54 27° SSW
Cosmos 2154 Rocket 4.3 23:07:50 23° SSW 23:11:50 64° WNW 23:18:01 10° N
Cosmos 2341 Rocket 3.9 23:11:46 32° S 23:14:52 80° E 23:21:07 10° N
Cosmos 1076 Rocket 4.4 23:12:54 24° SW 23:15:03 42° WNW 23:19:08 10° N
Cosmos 1680 Rocket 4.0 23:15:58 20° SW 23:19:33 60° WNW 23:24:51 10° NNE
Meteor 2-3 Rocket 4.3 23:21:02 32° SE 23:23:05 44° E 23:28:27 10° NNE
USA 267 3.5 23:21:24 32° SSE 23:24:15 51° SW 23:30:38 10° WNW
Cosmos 2151 3.0 23:23:52 43° SSW 23:25:11 74° W 23:29:29 10° N
IRIDIUM 104 4.4 23:23:26 38° SSE 23:25:20 64° E 23:30:31 10° N
Helios 1A 3.8 23:24:53 32° ESE 23:26:12 43° ENE 23:30:10 10° N
Cosmos 1452 Rocket 4.0 23:27:25 10° NNW 23:32:37 54° ENE 23:35:06 29° SE
CZ-4C R/B 4.0 23:26:22 10° NNW 23:32:49 41° NE 23:40:16 10° ESE
BREEZE-M DEB (TANK) 4.3 23:30:52 10° W 23:32:45 15° WSW 23:32:45 15° WSW
SL-8 Rocket 3.9 23:30:59 34° S 23:33:49 83° E 23:40:01 10° N
Cosmos 1825 2.9 23:32:56 36° WSW 23:33:56 46° WNW 23:37:37 10° N
COSMOS 2455 3.4 23:28:17 10° NNW 23:34:13 54° NE 23:38:24 19° ESE
IRIDIUM 114 4.3 23:32:35 40° SSE 23:34:28 77° E 23:39:43 10° N
Cosmos 1340 2.9 23:34:23 51° ESE 23:34:41 53° E 23:38:22 10° NNE
ALOS 2 2.6 23:35:27 48° S 23:36:35 71° WSW 23:40:59 10° NNW
Cosmos 1408 Rocket 3.8 23:35:56 45° SE 23:36:52 56° E 23:41:12 10° NNE
Cosmos 1933 3.2 23:33:26 10° N 23:37:28 81° ENE 23:38:13 57° SSE
Cosmos 1151 Rocket 2.9 23:34:40 10° N 23:39:02 90° SE 23:40:03 52° S
Meteor 2-12 Rocket 4.4 23:37:27 36° S 23:40:07 77° E 23:46:17 10° NNE
IRIDIUM 103 4.3 23:41:42 41° S 23:43:37 89° W 23:48:52 10° N
APEX 3.3 23:41:58 10° NNW 23:44:22 45° NE 23:44:22 45° NE
Cosmos 44 2.9 23:43:37 48° SSW 23:44:49 85° SE 23:49:16 10° NE
Cosmos 2369 Rocket 3.1 23:39:36 10° NNW 23:44:55 42° NE 23:48:49 17° ESE
Cosmos 1727 Rocket 4.2 23:38:53 10° N 23:45:06 66° ENE 23:48:04 32° SSE
Cosmos 1500 Rocket 4.5 23:44:49 31° ESE 23:45:45 35° E 23:49:45 10° NNE
GP-B 3.2 23:43:11 10° N 23:47:36 68° W 23:48:50 45° SSW
SL-4 R/B 3.3 23:48:59 20° NNW 23:48:59 20° NNW 23:49:46 10° NNW
Cosmos 371 Rocket 3.2 23:44:02 10° NNW 23:48:56 87° WSW 23:50:25 45° SSE
Helios 1B rocket 3.8 23:51:18 10° NE 23:54:48 26° E 23:55:23 25° ESE
CREW DRAGON DEMO-1 DEB 3.2 23:54:49 61° NW 23:54:56 62° NNW 23:58:00 10° ENE
